This demonstration page uses our WeatherBlox Daily Observations layout. Learn more.

Left ArrowRight Arrow

38.89511, -77.03637

Hourly Observations for January 2, 2021

Temp ( °F °C ) Dew Point ( °F °C ) Humidity (%) Winds ( mph kmh ) Pressure ( in mb ) Visibility ( mi km ) Precip ( " mm )
12:35 am 00:35 Cloudy with Mist and Fog 38 3.3 35 1.7 89 89 NNW 3 6 29.97 1015 3 5 0.00 0.00
12:43 am 00:43 Cloudy with Mist and Fog 37 2.8 36 2.2 96 96 NNW 3 6 29.96 1015 3 4 0.00 0.00
12:52 am 00:52 Cloudy with Mist and Fog 37 2.8 36 2.2 96 96 Calm 29.96 1015 3 5 0.00 0.00
1:01 am 01:01 Cloudy with Mist and Fog 37 2.8 36 2.2 96 96 Calm 29.95 1014 2 3 0.00 0.00
1:52 am 01:52 Cloudy with Mist and Fog 37 2.8 37 2.8 100 100 S 3 6 29.93 1014 3 4 0.00 0.00
2:33 am 02:33 Cloudy with Mist and Fog 38 3.3 37 2.8 97 97 S 7 11 29.90 1013 3 5 0.00 0.00
2:52 am 02:52 Cloudy with Mist and Fog 38 3.3 37 2.8 97 97 S 8 13 29.88 1012 5 8 0.00 0.00
3:52 am 03:52 Cloudy with Mist and Fog 38 3.3 37 2.8 97 97 WSW 5 7 29.86 1011 4 6 0.00 0.00
4:52 am 04:52 Cloudy 39 3.9 38 3.3 96 96 SSW 10 17 29.83 1010 10 16 0.00 0.00
5:52 am 05:52 Cloudy with Mist and Fog 40 4.4 39 3.9 97 97 WSW 5 7 29.87 1011 6 10 0.00 0.00
6:52 am 06:52 Cloudy 41 5 39 3.9 93 93 NW 6 9 29.91 1013 10 16 0.00 0.00
7:52 am 07:52 Mostly Cloudy 40 4.4 39 3.9 97 97 SSW 6 9 29.92 1013 10 16 0.00 0.00
8:52 am 08:52 Mostly Cloudy 41 5 39 3.9 93 93 SSW 6 9 29.93 1014 7 11 0.00 0.00
9:52 am 09:52 Mostly Cloudy 44 6.7 41 5 89 89 Calm 29.95 1014 8 13 0.00 0.00
10:48 am 10:48 Mostly Cloudy 45 7 41 5 87 87 SE 5 7 29.97 1015 8 13 0.00 0.00
10:52 am 10:52 Mostly Cloudy 44 6.7 41 5 89 89 SSE 6 9 29.97 1015 8 13 0.00 0.00
11:52 am 11:52 Mostly Cloudy 47 8.3 43 6.1 86 86 SSE 7 11 29.97 1015 10 16 0.00 0.00
12:52 pm 12:52 Mostly Cloudy 54 12.2 44 6.7 69 69 E 5 7 29.97 1015 10 16 0.00 0.00
1:52 pm 13:52 Mostly Cloudy 57 13.9 42 5.6 58 58 NW 13 20 29.99 1016 10 16 0.00 0.00
2:52 pm 14:52 Mostly Cloudy 56 13.3 41 5 57 57 NNW 14 22 30.02 1017 10 16 0.00 0.00
3:52 pm 15:52 Mostly Cloudy 54 12.2 39 3.9 57 57 NNW 13 20 30.03 1017 10 16 0.00 0.00
4:52 pm 16:52 Mostly Cloudy 52 11.1 39 3.9 61 61 NW 12 19 30.06 1018 10 16 0.00 0.00
5:52 pm 17:52 Cloudy 50 10 39 3.9 66 66 NNW 7 11 30.07 1018 10 16 0.00 0.00
6:52 pm 18:52 Cloudy 49 9.4 39 3.9 69 69 N 9 15 30.09 1019 10 16 0.00 0.00
7:52 pm 19:52 Mostly Cloudy 47 8.3 39 3.9 74 74 NNE 10 17 30.09 1019 10 16 0.00 0.00
8:52 pm 20:52 Cloudy 47 8.3 38 3.3 71 71 NNE 10 17 30.08 1019 10 16 0.00 0.00
9:52 pm 21:52 Cloudy 46 7.8 37 2.8 71 71 NNE 12 19 30.09 1019 10 16 0.00 0.00
10:52 pm 22:52 Cloudy 44 6.7 37 2.8 76 76 NNE 7 11 30.09 1019 10 16 0.00 0.00
11:52 pm 23:52 Cloudy 43 6.1 36 2.2 76 76 NE 6 9 30.07 1018 10 16 0.00 0.00

Powered by AerisWeather